Liberia, Costa Rica

12:30 PM CST on December 17, 2017 (GMT -0600)
Daniel Oduber Quiros International

Weather History for MRLB - August, 2014

Change the Weather History Date:

Sunday, August 24, 2014

  Actual Average Record
Temperature  
Mean Temperature 81 °F -  
Max Temperature 91 °F 85 °F 96 °F (2015)
Min Temperature 71 °F 73 °F 71 °F (2004)
Cooling Degree Days 16    
Growing Degree Days 31 (Base 50)    
Moisture  
Dew Point 72 °F    
Average Humidity 71    
Maximum Humidity 100    
Minimum Humidity 40    
Precipitation  
Precipitation 0.00 in - - ()
Sea Level Pressure  
Sea Level Pressure 29.81 in    
Wind  
Wind Speed 3 mph ()    
Max Wind Speed 12 mph    
Max Gust Speed -    
Visibility 6.7 miles    
Events Fog , Rain    
Averages and records for this station are not official NWS values.
T = Trace of Precipitation, MM = Missing Value Source: Averaged Metar Reports

Daily Weather History Graph

Daily Weather History Graph

Search for Another Location

Airport or City:

Trip Planner

Search our weather history database for the weather conditions in past years. The results will help you decide how hot, cold, wet, or windy it might be!

Date:

Astronomy

Aug. 24, 2014 Rise Set
Actual Time 5:32 AM CST 5:56 PM CST
Civil Twilight 5:11 AM CST 6:17 PM CST
Nautical Twilight 4:46 AM CST 6:42 PM CST
Astronomical Twilight 4:20 AM CST 7:07 PM CST
Moon 4:42 AM CST (8/24) 5:19 PM CST (8/24)
Length of Visible Light 13h 06m
Length of Day
12h 23m
Waning Crescent, 1% of the Moon is Illuminated
Aug 24
Waning Crescent
Aug 25
New
Sep 2
First Quarter
Sep 8
Full
Sep 15
Last Quarter

Hourly Weather History & Observations

Time (CST) Temp. Heat Index Dew Point Humidity Pressure Visibility Wind Dir Wind Speed Gust Speed Precip Events Conditions
6:00 AM 72 °F - 72 °F 98% 29.85 in 6 mi Calm Calm - -   Scattered Clouds
6:00 AM 71.6 °F - 71.6 °F 100% 29.82 in 6.2 mi Calm Calm - N/A Fog Mostly Cloudy
6:40 AM - - - N/A% 29.83 in 0.3 mi East 2.3 mph - N/A Fog Fog
7:00 AM 73.4 °F - 73.4 °F 100% 29.83 in 0.6 mi North 4.6 mph - N/A   Mostly Cloudy
7:10 AM 75.2 °F - 73.4 °F 94% 29.84 in 6.2 mi Calm Calm - N/A   Mostly Cloudy
8:00 AM 78.8 °F - 73.4 °F 83% 29.84 in 6.2 mi SSW 2.3 mph - N/A   Mostly Cloudy
9:00 AM 82 °F - 72 °F 66% 29.88 in 12 mi West 4.6 mph - -   Partly Cloudy
9:00 AM 82.4 °F 87.2 °F 71.6 °F 70% 29.85 in - West 4.6 mph - N/A   Clear
10:00 AM 86.0 °F 91.8 °F 71.6 °F 62% 29.84 in 6.2 mi West 5.8 mph - N/A   Mostly Cloudy
11:00 AM 89.6 °F 94.7 °F 69.8 °F 52% 29.83 in 6.2 mi West 4.6 mph - N/A   Mostly Cloudy
12:00 PM 91 °F - 70 °F 40% 29.83 in 12 mi West 3.5 mph - -   Partly Cloudy
12:00 PM 91.4 °F 96.8 °F 69.8 °F 49% 29.80 in 6.2 mi West 3.5 mph - N/A Rain Rain
1:00 PM 86.0 °F 89.4 °F 68.0 °F 55% 29.78 in 6.2 mi NW 4.6 mph - N/A Rain Light Rain
2:00 PM 84.2 °F 90.9 °F 73.4 °F 70% 29.77 in 6.2 mi West 11.5 mph - N/A   Scattered Clouds
3:00 PM 85 °F - 70 °F 52% 29.80 in 12 mi WSW 5.8 mph - -   Overcast
3:00 PM 86.0 °F 90.4 °F 69.8 °F 58% 29.76 in 6.2 mi WSW 5.8 mph - N/A   Mostly Cloudy
4:00 PM 84.2 °F 90.9 °F 73.4 °F 70% 29.75 in 6.2 mi West 8.1 mph - N/A   Scattered Clouds
5:00 PM 84.2 °F 90.9 °F 73.4 °F 70% 29.76 in 6.2 mi WSW 4.6 mph - N/A   Scattered Clouds
6:00 PM 81 °F - 73 °F 71% 29.80 in 12 mi SE 3.5 mph - -   Overcast
6:00 PM 80.6 °F 85.4 °F 73.4 °F 79% 29.77 in 6.2 mi SE 3.5 mph - N/A   Mostly Cloudy
7:00 PM 80.6 °F 84.6 °F 71.6 °F 74% 29.79 in 6.2 mi NE 5.8 mph - N/A   Mostly Cloudy
8:00 PM 78.8 °F - 71.6 °F 78% 29.80 in 6.2 mi NE 2.3 mph - N/A   Mostly Cloudy